| time (UTC) | temp C | wind direction | speed KPH | gust KPH | rain 1hr cm | rain 24hr cm | rain mn cm | humidity % | barometer mb |
| 20260505064817 | 20 | 204 | 0.0 | 1.6 | 0.00 | 0.00 | 0.00 | 48 | 1015.9 |
| 20260505064309 | 20 | 204 | 0.0 | 1.6 | 0.00 | 0.00 | 0.00 | 48 | 1015.8 |
| 20260505063802 | 20 | 204 | 0.0 | 0.0 | 0.00 | 0.00 | 0.00 | 47 | 1015.7 |
| 20260505063253 | 20 | 204 | 0.0 | 0.0 | 0.00 | 0.00 | 0.00 | 47 | 1015.6 |
| 20260505062747 | 20 | 204 | 0.0 | 8.0 | 0.00 | 0.00 | 0.00 | 47 | 1015.5 |
| 20260505062506 | 21 | 204 | 0.0 | 8.0 | 0.00 | 0.00 | 0.00 | 46 | 1015.5 |
| 20260505061730 | 21 | 199 | 0.0 | 3.2 | 0.00 | 0.00 | 0.00 | 48 | 1015.5 |
| 20260505061444 | 21 | 199 | 0.0 | 3.2 | 0.00 | 0.00 | 0.00 | 47 | 1015.4 |
| 20260505060714 | 21 | 199 | 0.0 | 0.0 | 0.00 | 0.00 | 0.00 | 49 | 1015.5 |
| 20260505060204 | 21 | 199 | 0.0 | 0.0 | 0.00 | 0.00 | 0.00 | 49 | 1015.4 |
| 20260505055655 | 21 | 199 | 0.0 | 3.2 | 0.00 | 0.00 | 0.00 | 47 | 1015.4 |
| 20260505055143 | 21 | 199 | 0.0 | 3.2 | 0.00 | 0.00 | 0.00 | 46 | 1015.4 |
| 20260505054642 | 21 | 199 | 0.0 | 3.2 | 0.00 | 0.00 | 0.00 | 46 | 1015.3 |
| 20260505054404 | 21 | 199 | 0.0 | 1.6 | 0.00 | 0.00 | 0.00 | 47 | 1015.4 |
| 20260505054113 | 21 | 199 | 0.0 | 8.0 | 0.00 | 0.00 | 0.00 | 47 | 1015.3 |
| 20260505053121 | 21 | 198 | 0.0 | 1.6 | 0.00 | 0.00 | 0.00 | 47 | 1015.4 |
| 20260505052610 | 21 | 197 | 0.0 | 1.6 | 0.00 | 0.00 | 0.00 | 47 | 1015.3 |
| 20260505052324 | 21 | 198 | 0.0 | 8.0 | 0.00 | 0.00 | 0.00 | 46 | 1015.4 |
| 20260505051552 | 21 | 197 | 0.0 | 8.0 | 0.00 | 0.00 | 0.00 | 46 | 1015.4 |
| 20260505051301 | 21 | 188 | 0.0 | 1.6 | 0.00 | 0.00 | 0.00 | 47 | 1015.4 |
| 20260505050530 | 21 | 188 | 0.0 | 1.6 | 0.00 | 0.00 | 0.00 | 46 | 1015.4 |
| 20260505041407 | 21 | 188 | 0.0 | 3.2 | 0.00 | 0.00 | 0.00 | 48 | 1015.1 |
| 20260505040856 | 21 | 188 | 0.0 | 4.8 | 0.00 | 0.00 | 0.00 | 48 | 1015.0 |
| 20260505040346 | 21 | 188 | 0.0 | 4.8 | 0.00 | 0.00 | 0.00 | 48 | 1015.0 |
| 20260505035836 | 21 | 191 | 0.0 | 3.2 | 0.00 | 0.00 | 0.00 | 49 | 1014.9 |
| 20260505035329 | 21 | 195 | 0.0 | 3.2 | 0.00 | 0.00 | 0.00 | 49 | 1015.0 |
| 20260505034824 | 21 | 195 | 0.0 | 1.6 | 0.00 | 0.00 | 0.00 | 48 | 1015.1 |
| 20260505034315 | 21 | 195 | 0.0 | 3.2 | 0.00 | 0.00 | 0.00 | 49 | 1015.0 |
| 20260505033804 | 21 | 195 | 0.0 | 3.2 | 0.00 | 0.00 | 0.00 | 49 | 1014.9 |
| 20260505033515 | 21 | 195 | 0.0 | 1.6 | 0.00 | 0.00 | 0.00 | 49 | 1015.1 |
| 20260505032744 | 21 | 195 | 0.0 | 1.6 | 0.00 | 0.00 | 0.00 | 49 | 1015.2 |
| 20260505032233 | 21 | 195 | 0.0 | 1.6 | 0.00 | 0.00 | 0.00 | 50 | 1015.2 |
| 20260505031728 | 21 | 195 | 0.0 | 1.6 | 0.00 | 0.00 | 0.00 | 49 | 1015.3 |
| 20260505031222 | 21 | 195 | 0.0 | 6.4 | 0.00 | 0.00 | 0.00 | 51 | 1015.2 |
| 20260505030714 | 21 | 195 | 0.0 | 6.4 | 0.00 | 0.00 | 0.00 | 50 | 1015.2 |
| 20260505030204 | 21 | 190 | 0.0 | 3.2 | 0.00 | 0.00 | 0.00 | 48 | 1015.3 |
| 20260505025654 | 21 | 190 | 0.0 | 3.2 | 0.00 | 0.00 | 0.00 | 50 | 1015.3 |
| 20260505025144 | 21 | 190 | 0.0 | 8.0 | 0.00 | 0.00 | 0.00 | 49 | 1015.4 |
| 20260505024639 | 21 | 244 | 0.0 | 8.0 | 0.00 | 0.00 | 0.00 | 50 | 1015.4 |
| 20260505024132 | 21 | 232 | 0.0 | 1.6 | 0.00 | 0.00 | 0.00 | 49 | 1015.4 |
| 20260505023627 | 21 | 232 | 0.0 | 3.2 | 0.00 | 0.00 | 0.00 | 51 | 1015.5 |
| 20260505023116 | 21 | 232 | 0.0 | 3.2 | 0.00 | 0.03 | 0.00 | 50 | 1015.6 |
| 20260505022831 | 21 | 242 | 0.0 | 3.2 | 0.00 | 0.05 | 0.00 | 52 | 1015.7 |
| 20260505022108 | 21 | 242 | 0.0 | 6.4 | 0.00 | 0.05 | 0.00 | 53 | 1015.7 |
| 20260505021554 | 21 | 242 | 0.0 | 6.4 | 0.00 | 0.08 | 0.00 | 51 | 1015.6 |
| 20260505021046 | 21 | 249 | 0.0 | 3.2 | 0.00 | 0.10 | 0.00 | 54 | 1015.6 |
| 20260505020533 | 21 | 249 | 0.0 | 4.8 | 0.00 | 0.13 | 0.00 | 51 | 1015.7 |
| 20260505020029 | 21 | 248 | 0.0 | 8.0 | 0.00 | 0.15 | 0.00 | 51 | 1015.8 |
| 20260505015518 | 21 | 249 | 0.0 | 8.0 | 0.00 | 0.18 | 0.00 | 54 | 1015.8 |
| 20260505015007 | 21 | 267 | 0.0 | 8.0 | 0.00 | 0.20 | 0.00 | 53 | 1015.9 |
| 20260505014459 | 21 | 281 | 0.0 | 3.2 | 0.00 | 0.23 | 0.00 | 54 | 1016.1 |
| 20260505013943 | 21 | 281 | 0.0 | 3.2 | 0.00 | 0.23 | 0.00 | 54 | 1016.2 |
| 20260505013442 | 21 | 282 | 0.0 | 6.4 | 0.00 | 0.23 | 0.00 | 55 | 1016.3 |
| 20260505012932 | 21 | 262 | 0.0 | 6.4 | 0.00 | 0.23 | 0.00 | 54 | 1016.4 |
| 20260505012430 | 20 | 246 | 1.6 | 11.3 | 0.00 | 0.25 | 0.00 | 54 | 1016.4 |
| 20260505011918 | 21 | 234 | 0.0 | 11.3 | 0.00 | 0.28 | 0.00 | 54 | 1016.4 |
| 20260505011403 | 21 | 267 | 0.0 | 3.2 | 0.00 | 0.28 | 0.00 | 59 | 1016.4 |
| 20260505010900 | 20 | 267 | 0.0 | 6.4 | 0.00 | 0.28 | 0.00 | 56 | 1016.6 |
| 20260505010336 | 20 | 267 | 0.0 | 6.4 | 0.00 | 0.30 | 0.00 | 56 | 1016.7 |
| 20260505005838 | 20 | 227 | 0.0 | 6.4 | 0.00 | 0.30 | 0.00 | 58 | 1016.7 |
| 20260505005601 | 20 | 227 | 0.0 | 11.3 | 0.00 | 0.30 | 0.00 | 58 | 1016.7 |
| 20260505005328 | 20 | 221 | 0.0 | 11.3 | 0.00 | 0.33 | 0.00 | 57 | 1016.8 |
| 20260505004557 | 20 | 232 | 0.0 | 8.0 | 0.00 | 0.33 | 0.00 | 56 | 1017.1 |
| 20260505003834 | 20 | 234 | 0.0 | 8.0 | 0.00 | 0.33 | 0.00 | 57 | 1017.0 |
| 20260505003335 | 20 | 231 | 0.0 | 9.7 | 0.00 | 0.33 | 0.00 | 59 | 1017.1 |
| 20260505002823 | 20 | 231 | 0.0 | 9.7 | 0.00 | 0.33 | 0.00 | 59 | 1017.1 |
| 20260505002316 | 20 | 240 | 0.0 | 3.2 | 0.00 | 0.33 | 0.00 | 57 | 1017.1 |
| 20260505001756 | 20 | 242 | 0.0 | 3.2 | 0.00 | 0.33 | 0.00 | 58 | 1017.1 |
| 20260505001503 | 20 | 242 | 0.0 | 3.2 | 0.00 | 0.33 | 0.00 | 59 | 1017.1 |
| 20260505000719 | 20 | 241 | 0.0 | 3.2 | 0.00 | 0.33 | 0.00 | 60 | 1017.1 |
| 20260505000208 | 20 | 241 | 0.0 | 3.2 | 0.00 | 0.33 | 0.00 | 59 | 1017.0 |
| 20260504235654 | 20 | 242 | 0.0 | 3.2 | 0.00 | 0.33 | 0.00 | 62 | 1017.1 |
| 20260504235143 | 19 | 242 | 0.0 | 6.4 | 0.00 | 0.33 | 0.00 | 61 | 1017.1 |
| 20260504234637 | 19 | 242 | 0.0 | 6.4 | 0.00 | 0.33 | 0.00 | 60 | 1017.3 |
| 20260504234344 | 19 | 242 | 0.0 | 3.2 | 0.00 | 0.33 | 0.00 | 62 | 1017.3 |
| 20260504233622 | 19 | 242 | 0.0 | 3.2 | 0.00 | 0.33 | 0.00 | 62 | 1017.4 |
| 20260504233116 | 19 | 242 | 0.0 | 3.2 | 0.00 | 0.33 | 0.00 | 63 | 1017.4 |
| 20260504232606 | 18 | 292 | 0.0 | 3.2 | 0.00 | 0.33 | 0.00 | 63 | 1017.4 |
| 20260504232100 | 18 | 121 | 0.0 | 3.2 | 0.00 | 0.33 | 0.00 | 64 | 1017.4 |
| 20260504231553 | 18 | 122 | 0.0 | 1.6 | 0.00 | 0.33 | 0.00 | 64 | 1017.4 |
| 20260504231043 | 18 | 122 | 0.0 | 0.0 | 0.00 | 0.33 | 0.00 | 65 | 1017.3 |
| 20260504230533 | 18 | 122 | 0.0 | 3.2 | 0.00 | 0.33 | 0.00 | 69 | 1017.1 |
| 20260504230028 | 18 | 122 | 0.0 | 3.2 | 0.00 | 0.33 | 0.00 | 67 | 1017.1 |
| 20260504225517 | 17 | 121 | 0.0 | 6.4 | 0.00 | 0.33 | 0.00 | 67 | 1017.1 |
| 20260504225007 | 17 | 122 | 0.0 | 6.4 | 0.00 | 0.33 | 0.00 | 67 | 1017.1 |
| 20260504224722 | 17 | 122 | 0.0 | 3.2 | 0.00 | 0.33 | 0.00 | 68 | 1017.1 |
| 20260504223944 | 17 | 121 | 0.0 | 1.6 | 0.00 | 0.33 | 0.00 | 70 | 1017.1 |
| 20260504223447 | 17 | 122 | 0.0 | 0.0 | 0.00 | 0.33 | 0.00 | 72 | 1017.1 |
| 20260504222930 | 17 | 122 | 0.0 | 3.2 | 0.00 | 0.33 | 0.00 | 72 | 1017.3 |
| 20260504222417 | 16 | 121 | 0.0 | 3.2 | 0.00 | 0.33 | 0.00 | 73 | 1017.3 |
| 20260504222130 | 16 | 122 | 0.0 | 0.0 | 0.00 | 0.33 | 0.00 | 74 | 1017.4 |
| 20260504221408 | 16 | 121 | 0.0 | 1.6 | 0.00 | 0.33 | 0.00 | 76 | 1017.4 |
| 20260504221128 | 15 | 121 | 0.0 | 1.6 | 0.00 | 0.33 | 0.00 | 78 | 1017.3 |
| 20260504220359 | 15 | 121 | 0.0 | 0.0 | 0.00 | 0.33 | 0.00 | 82 | 1017.0 |
| 20260504215853 | 14 | 121 | 0.0 | 0.0 | 0.00 | 0.33 | 0.00 | 87 | 1017.0 |
| 20260504215346 | 13 | 121 | 0.0 | 0.0 | 0.00 | 0.33 | 0.00 | 89 | 1016.9 |
| 20260504214835 | 13 | 121 | 0.0 | 0.0 | 0.00 | 0.33 | 0.00 | 90 | 1016.7 |
| 20260504214336 | 13 | 121 | 0.0 | 0.0 | 0.00 | 0.33 | 0.00 | 90 | 1016.6 |
| 20260504213818 | 13 | 121 | 0.0 | 0.0 | 0.00 | 0.33 | 0.00 | 91 | 1016.4 |
| 20260504213541 | 12 | 121 | 0.0 | 0.0 | 0.00 | 0.33 | 0.00 | 91 | 1016.4 |
| 20260504212755 | 12 | 121 | 0.0 | 0.0 | 0.00 | 0.33 | 0.00 | 91 | 1016.3 |
| 20260504212244 | 12 | 121 | 0.0 | 0.0 | 0.00 | 0.33 | 0.00 | 91 | 1016.3 |
| 20260504211736 | 12 | 121 | 0.0 | 0.0 | 0.00 | 0.33 | 0.00 | 91 | 1016.2 |
| 20260504211236 | 12 | 121 | 0.0 | 0.0 | 0.00 | 0.33 | 0.00 | 90 | 1016.1 |
| 20260504210732 | 12 | 121 | 0.0 | 0.0 | 0.00 | 0.33 | 0.00 | 90 | 1016.1 |
| 20260504210233 | 12 | 121 | 0.0 | 0.0 | 0.00 | 0.33 | 0.00 | 90 | 1016.0 |
| 20260504205946 | 12 | 121 | 0.0 | 0.0 | 0.00 | 0.33 | 0.00 | 90 | 1015.9 |
| 20260504205212 | 12 | 121 | 0.0 | 0.0 | 0.00 | 0.33 | 0.00 | 89 | 1015.9 |
| 20260504204703 | 12 | 121 | 0.0 | 0.0 | 0.00 | 0.33 | 0.00 | 89 | 1015.7 |
| 20260504204137 | 12 | 121 | 0.0 | 0.0 | 0.00 | 0.33 | 0.00 | 89 | 1015.7 |
| 20260504203637 | 12 | 121 | 0.0 | 0.0 | 0.00 | 0.33 | 0.00 | 89 | 1015.6 |
| 20260504203117 | 12 | 121 | 0.0 | 0.0 | 0.00 | 0.33 | 0.00 | 89 | 1015.4 |
| 20260504202613 | 12 | 121 | 0.0 | 0.0 | 0.00 | 0.33 | 0.00 | 88 | 1015.3 |
| 20260504202327 | 12 | 121 | 0.0 | 0.0 | 0.00 | 0.33 | 0.00 | 88 | 1015.3 |
| 20260504201550 | 12 | 121 | 0.0 | 0.0 | 0.00 | 0.33 | 0.00 | 88 | 1015.3 |
| 20260504201041 | 12 | 122 | 0.0 | 0.0 | 0.00 | 0.33 | 0.00 | 88 | 1015.2 |
| 20260504200536 | 12 | 122 | 0.0 | 0.0 | 0.00 | 0.33 | 0.00 | 88 | 1015.2 |
| 20260504200037 | 12 | 121 | 0.0 | 0.0 | 0.00 | 0.33 | 0.00 | 88 | 1015.1 |
| 20260504195533 | 12 | 121 | 0.0 | 0.0 | 0.00 | 0.33 | 0.00 | 88 | 1015.1 |
| 20260504195027 | 12 | 121 | 0.0 | 0.0 | 0.00 | 0.33 | 0.00 | 88 | 1015.1 |
| 20260504194522 | 12 | 121 | 0.0 | 0.0 | 0.00 | 0.33 | 0.00 | 88 | 1014.9 |
| 20260504194023 | 12 | 121 | 0.0 | 0.0 | 0.00 | 0.33 | 0.00 | 88 | 1015.0 |
| 20260504193459 | 13 | 122 | 0.0 | 0.0 | 0.00 | 0.33 | 0.00 | 88 | 1015.0 |
| 20260504193001 | 13 | 121 | 0.0 | 0.0 | 0.00 | 0.33 | 0.00 | 88 | 1015.0 |
| 20260504192652 | 13 | 121 | 0.0 | 0.0 | 0.00 | 0.33 | 0.00 | 88 | 1014.9 |
| 20260504191930 | 13 | 121 | 0.0 | 0.0 | 0.00 | 0.33 | 0.00 | 88 | 1014.9 |
| 20260504191433 | 13 | 121 | 0.0 | 0.0 | 0.00 | 0.33 | 0.00 | 88 | 1014.9 |
| 20260504190921 | 13 | 121 | 0.0 | 0.0 | 0.00 | 0.33 | 0.00 | 87 | 1014.8 |
| 20260504190351 | 13 | 122 | 0.0 | 0.0 | 0.00 | 0.33 | 0.00 | 87 | 1014.8 |
| 20260504185840 | 13 | 121 | 0.0 | 0.0 | 0.00 | 0.33 | 0.00 | 87 | 1014.6 |
| 20260504185549 | 13 | 121 | 0.0 | 0.0 | 0.00 | 0.33 | 0.00 | 87 | 1014.6 |
| 20260504185055 | 13 | 121 | 0.0 | 0.0 | 0.00 | 0.33 | 0.00 | 87 | 1014.6 |
| 20260504184308 | 13 | 121 | 0.0 | 0.0 | 0.00 | 0.33 | 0.00 | 87 | 1014.6 |
| 20260504183803 | 13 | 121 | 0.0 | 0.0 | 0.00 | 0.33 | 0.00 | 87 | 1014.5 |
| 20260504183242 | 13 | 121 | 0.0 | 0.0 | 0.00 | 0.33 | 0.00 | 87 | 1014.3 |
| 20260504182732 | 13 | 121 | 0.0 | 0.0 | 0.00 | 0.33 | 0.00 | 87 | 1014.2 |
| 20260504182211 | 14 | 121 | 0.0 | 0.0 | 0.00 | 0.33 | 0.00 | 87 | 1014.1 |
| 20260504181710 | 14 | 121 | 0.0 | 0.0 | 0.00 | 0.33 | 0.00 | 87 | 1014.1 |
| 20260504181158 | 14 | 121 | 0.0 | 0.0 | 0.00 | 0.33 | 0.00 | 87 | 1014.1 |
| 20260504180650 | 14 | 121 | 0.0 | 0.0 | 0.00 | 0.33 | 0.00 | 87 | 1014.1 |
| 20260504180347 | 14 | 121 | 0.0 | 0.0 | 0.00 | 0.33 | 0.00 | 87 | 1014.1 |
| 20260504175828 | 14 | 121 | 0.0 | 0.0 | 0.00 | 0.33 | 0.00 | 87 | 1014.2 |
| 20260504175047 | 15 | 121 | 0.0 | 0.0 | 0.00 | 0.33 | 0.00 | 86 | 1014.2 |
| 20260504174533 | 15 | 121 | 0.0 | 0.0 | 0.00 | 0.33 | 0.00 | 87 | 1014.2 |
| 20260504174253 | 15 | 121 | 0.0 | 0.0 | 0.00 | 0.33 | 0.00 | 87 | 1014.1 |
| 20260504173747 | 15 | 121 | 0.0 | 0.0 | 0.00 | 0.33 | 0.00 | 87 | 1014.2 |
| 20260504172947 | 15 | 121 | 0.0 | 1.6 | 0.00 | 0.33 | 0.00 | 86 | 1014.2 |
| 20260504172435 | 15 | 121 | 0.0 | 1.6 | 0.00 | 0.33 | 0.00 | 86 | 1014.2 |
| 20260504171918 | 15 | 123 | 0.0 | 0.0 | 0.00 | 0.33 | 0.00 | 86 | 1014.3 |
| 20260504171408 | 15 | 123 | 0.0 | 0.0 | 0.00 | 0.33 | 0.00 | 86 | 1014.3 |
| 20260504170902 | 16 | 123 | 0.0 | 0.0 | 0.00 | 0.33 | 0.00 | 86 | 1014.3 |
| 20260504170358 | 16 | 123 | 0.0 | 0.0 | 0.00 | 0.33 | 0.00 | 86 | 1014.3 |
| 20260504150714 | 17 | 5 | 0.0 | 0.0 | 0.00 | 0.33 | 0.00 | 86 | 1014.2 |
| 20260504141232 | 18 | 5 | 0.0 | 0.0 | 0.00 | 0.33 | 0.00 | 85 | 1014.2 |
| 20260504140721 | 18 | 5 | 0.0 | 0.0 | 0.00 | 0.33 | 0.00 | 85 | 1014.3 |
| 20260504140702 | 18 | 5 | 0.0 | 0.0 | 0.00 | 0.33 | 0.00 | 84 | 1014.3 |
| 20260504130447 | 18 | 5 | 0.0 | 0.0 | 0.00 | 0.33 | 0.33 | 82 | 1014.1 |
| 20260504120204 | 18 | 5 | 0.0 | 0.0 | 0.00 | 0.33 | 0.33 | 81 | 1014.1 |
| 20260504110540 | 19 | 10 | 0.0 | 1.6 | 0.00 | 0.33 | 0.33 | 79 | 1013.5 |
| 20260504100339 | 20 | 326 | 0.0 | 1.6 | 0.00 | 0.33 | 0.33 | 78 | 1013.0 |
| 20260504081538 | 20 | 303 | 0.0 | 1.6 | 0.00 | 0.33 | 0.33 | 79 | 1012.8 |
| 20260504081041 | 20 | 303 | 0.0 | 1.6 | 0.00 | 0.33 | 0.33 | 80 | 1012.7 |
| 20260504080537 | 20 | 303 | 0.0 | 1.6 | 0.00 | 0.33 | 0.33 | 80 | 1012.6 |
| 20260504080247 | 20 | 303 | 0.0 | 1.6 | 0.00 | 0.33 | 0.33 | 80 | 1012.8 |
| 20260504070357 | 20 | 327 | 0.0 | 0.0 | 0.00 | 0.33 | 0.33 | 82 | 1012.4 |